User: anonymous   Login
Location: Newark
(11.5710°N, 104.9241°E)
Time: 20:31:51
(UTC+00:00)
Language:

ISS - Orbit

View from above orbital plane
View from above orbital plane
View from above satellite
View from above satellite

Ground track
Ground track

The orbit data is extracted from the following two-line orbital elements,

1 25544U 98067A   20089.16103214  .00016717  00000-0  10270-3 0  9026
2 25544  51.6433  24.4471 0004767  65.9697 294.1952 15.48902988 19604
Epoch (UTC): 29 March 2020 03:51:53
Eccentricity: 0.0004767
inclination: 51.6433°
perigee height: 417 km
apogee height: 423 km
right ascension of ascending node: 24.4471°
argument of perigee: 65.9697°
revolutions per day: 15.48902988
mean anomaly at epoch: 294.1952°
orbit number at epoch: 1960

The dashed part of the orbit path shows where the satellite is in the earth's shadow,  

DLR